Regional Weather Roundup
Issued by NWS

Home | Current Version | Previous Version | Text Only | Print | Product List | Glossary On
Versions: 1 2 3 4 5 6 7 8 9 10 11 12 13 14 15 16 17 18 19 20 21 22 23 24 25 26 27 28 29 30 31 32 33 34 35 36 37 38 39 40 41 42 43 44 45 46 47 48 49 50
541
ASUS44 KLIX 171201
RWRLA
LOUISIANA WEATHER ROUNDUP
NATIONAL WEATHER SERVICE NEW ORLEANS LA
700 AM CDT THU APR 17 2014

NOTE: "FAIR" INDICATES FEW OR NO CLOUDS BELOW 12,000 FEET WITH NO
      SIGNIFICANT WEATHER AND/OR OBSTRUCTIONS TO VISIBILITY.
      SKY/WX - SKY CONDITION AND SIGNIFICANT WEATHER.
      TMP - AIR TEMPERATURE.    DP   - DEWPOINT TEMPERATURE.
      RH  - RELATIVE HUMIDITY.  PRES - PRESSURE.
      HX  - HEAT INDEX.         WCI  - WIND CHILL INDEX.

*  THESE STATIONS ARE NOT NWS OR FAA STATIONS AND ARE NOT UNDER
   NWS QUALITY CONTROL.

LAZ040-048-061>063-065-066-069-171300-
SOUTHEAST LOUISIANA

CITY           SKY/WX    TMP DP  RH WIND       PRES   REMARKS
N.O. AUDUBON     N/A     59 N/A N/A MISG        N/A
6HR MIN TEMP:  52; 6HR MAX TEMP:  60;

N.O. INTL ARPT MOCLDY    59  55  87 NE9       30.15R
6HR MIN TEMP:  50; 6HR MAX TEMP:  59;

N.O. LAKEFRONT CLOUDY    58  54  86 NE16      30.16R
6HR MIN TEMP:  54; 6HR MAX TEMP:  61;

N.O. DOWNTOWN* CLOUDY    59  50  72 N10       30.16R
6HR MIN TEMP:  55; 6HR MAX TEMP:  61;

SLIDELL        CLOUDY    53  49  86 NE6       30.16R
6HR MIN TEMP:  44; 6HR MAX TEMP:  53;

BATON ROUGE    CLOUDY    51  46  83 NE7       30.16R
6HR MIN TEMP:  47; 6HR MAX TEMP:  51;

BOOTHVILLE     PTCLDY    57  53  86 N3        30.14R
6HR MIN TEMP:  56; 6HR MAX TEMP:  61;

BELLE CHASSE   MOCLDY    55  52  89 CALM      30.14R
6HR MIN TEMP:  48; 6HR MAX TEMP:  57;

BOGALUSA*        N/A     51  47  88 NE3       30.21R
6HR MIN TEMP:  44; 6HR MAX TEMP:  51;

GALLIANO*      NOT AVBL
NEW ROADS*     NOT AVBL
GONZALES*      CLOUDY    52  50  92 N3        30.16R
6HR MIN TEMP:  46; 6HR MAX TEMP:  52;

HAMMOND*       NOT AVBL
HOUMA*         MOCLDY    57  52  82 N7        30.14R
PORT FOURCHON* CLOUDY    64  54  68 E9        30.13R

$$

LAZ041-044-053-054-171300-
SOUTHWEST LOUISIANA

CITY           SKY/WX    TMP DP  RH WIND       PRES   REMARKS
LAKE CHARLES   CLOUDY    53  49  86 NE7       30.13R
6HR MIN TEMP:  52; 6HR MAX TEMP:  54;

LAFAYETTE      CLOUDY    51  49  92 CALM      30.15R
6HR MIN TEMP:  47; 6HR MAX TEMP:  53;

PATTERSON      CLOUDY    55  50  82 NE8         N/A
6HR MIN TEMP:  50; 6HR MAX TEMP:  55;

SALT POINT       N/A     58  51  78 VRB3      30.11R
6HR MIN TEMP:  55; 6HR MAX TEMP:  58;

NEW IBERIA     CLOUDY    54  49  83 N5        30.15R
6HR MIN TEMP:  51; 6HR MAX TEMP:  54;

CHENAULT AIRPK MOCLDY    54  48  82 E5        30.14R

$$

LAZ027-028-171300-
CENTRAL LOUISIANA

CITY           SKY/WX    TMP DP  RH WIND       PRES   REMARKS
FORT POLK      CLOUDY    50  47  89 E6        30.15R
6HR MIN TEMP:  47; 6HR MAX TEMP:  50;

ALEXANDRIA INT CLOUDY    49  45  86 CALM      30.16R
6HR MIN TEMP:  46; 6HR MAX TEMP:  51;

ALEXANDRIA     PTCLDY    42  40  92 CALM      30.17R FOG
6HR MIN TEMP:  41; 6HR MAX TEMP:  44;


$$

LAZ001-002-171300-
NORTHWEST LOUISIANA

CITY           SKY/WX    TMP DP  RH WIND       PRES   REMARKS
SHREVEPORT     MOCLDY    45  41  86 CALM      30.16R
6HR MIN TEMP:  43; 6HR MAX TEMP:  49;

BARKSDALE AFB  NOT AVBL
DTN SHREVEPORT PTCLDY    43  40  89 CALM      30.17R
6HR MIN TEMP:  41; 6HR MAX TEMP:  47;


$$

LAZ014-016-171300-
NORTHEAST LOUISIANA

CITY           SKY/WX    TMP DP  RH WIND       PRES   REMARKS
MONROE         PTCLDY    40  39  97 CALM      30.20R FOG
6HR MIN TEMP:  40; 6HR MAX TEMP:  45;

TALLULAH       PTCLDY    47  44  90 SE5       30.21R
6HR MIN TEMP:  47; 6HR MAX TEMP:  52;


$$




USA.gov is the U.S. government's official web portal to all federal, state and local government web resources and services.